EW0184 Weather Reports


Display with metric or nautical units.
time (UTC)temp
F
wind
direction
speed
MPH
gust
MPH
rain 1hr
in
rain 24hr
in
rain mn
in
humidity
%
barometer
mb
20260505002524 79 152 1.0 5.0 0.00 0.00 0.00 22 1004.6
20260505002034 79 227 1.0 6.0 0.00 0.00 0.00 21 1004.6
20260505001527 79 260 2.0 9.0 0.00 0.00 0.00 21 1004.7
20260505001023 79 297 2.0 9.0 0.00 0.00 0.00 22 1004.6
20260505000537 79 98 1.0 7.0 0.00 0.00 0.00 22 1004.8
20260505000028 79 293 2.0 8.0 0.00 0.00 0.00 21 1004.8
20260504235524 79 222 2.0 6.0 0.00 0.00 0.00 21 1004.8
20260504235034 79 264 1.0 6.0 0.00 0.00 0.00 21 1004.7
20260504234539 80 239 2.0 6.0 0.00 0.00 0.00 20 1004.8
20260504234027 80 298 1.0 6.0 0.00 0.00 0.00 21 1004.8
20260504233534 80 141 1.0 9.0 0.00 0.00 0.00 20 1004.8
20260504233032 80 235 3.0 9.0 0.00 0.00 0.00 20 1004.8
20260504232522 80 6 1.0 9.0 0.00 0.00 0.00 20 1004.9
20260504232034 80 100 3.0 7.0 0.00 0.00 0.00 20 1004.7
20260504231538 80 270 1.0 7.0 0.00 0.00 0.00 21 1004.8
20260504231021 81 276 1.0 6.0 0.00 0.00 0.00 20 1004.7
20260504230530 81 274 0.0 7.0 0.00 0.00 0.00 21 1004.7
20260504230028 81 194 2.0 9.0 0.00 0.00 0.00 21 1004.7
20260504225528 82 4 1.0 11.0 0.00 0.00 0.00 21 1004.7
20260504225034 82 197 3.0 11.0 0.00 0.00 0.00 20 1004.6
20260504224529 82 232 3.0 8.0 0.00 0.00 0.00 20 1004.8
20260504224022 83 245 2.0 8.0 0.00 0.00 0.00 20 1004.6
20260504223532 84 264 2.0 6.0 0.00 0.00 0.00 19 1004.6
20260504223025 84 159 1.0 6.0 0.00 0.00 0.00 19 1004.7
20260504222521 84 249 2.0 6.0 0.00 0.00 0.00 19 1004.8
20260504222031 83 312 1.0 9.0 0.00 0.00 0.00 18 1004.8
20260504221525 83 243 2.0 11.0 0.00 0.00 0.00 18 1005.0
20260504221036 84 266 3.0 11.0 0.00 0.00 0.00 17 1005.0
20260504220531 85 319 3.0 10.0 0.00 0.00 0.00 16 1005.2
20260504220027 85 17 2.0 10.0 0.00 0.00 0.00 16 1005.1
20260504215537 85 291 4.0 10.0 0.00 0.00 0.00 16 1005.4
20260504215031 85 288 3.0 7.0 0.00 0.00 0.00 17 1005.3
20260504214535 85 278 2.0 9.0 0.00 0.00 0.00 18 1005.4
20260504214037 85 167 3.0 9.0 0.00 0.00 0.00 19 1005.8
20260504213532 84 57 3.0 10.0 0.00 0.00 0.00 18 1005.8
20260504213030 84 67 2.0 10.0 0.00 0.00 0.00 18 1005.9
20260504212536 84 121 2.0 8.0 0.00 0.00 0.00 19 1006.0
20260504212034 83 53 1.0 8.0 0.00 0.00 0.00 19 1006.1
20260504211526 83 252 3.0 8.0 0.00 0.00 0.00 21 1006.2
20260504211022 82 298 1.0 8.0 0.00 0.00 0.00 20 1006.2
20260504210533 81 36 1.0 8.0 0.00 0.00 0.00 22 1006.4
20260504210028 82 257 1.0 4.0 0.00 0.00 0.00 22 1006.4
20260504205526 82 108 2.0 5.0 0.00 0.00 0.00 22 1006.4
20260504205033 81 248 1.0 6.0 0.00 0.00 0.00 22 1006.5
20260504204554 81 260 1.0 6.0 0.00 0.00 0.00 24 1006.7
20260504204034 79 263 1.0 7.0 0.00 0.00 0.00 24 1006.8
20260504203535 79 210 3.0 7.0 0.00 0.00 0.00 23 1006.8
20260504203028 79 226 2.0 8.0 0.00 0.00 0.00 23 1007.0
20260504202532 79 285 0.0 8.0 0.00 0.00 0.00 24 1007.0
20260504202042 80 321 1.0 6.0 0.00 0.00 0.00 22 1007.1
20260504201536 80 232 0.0 5.0 0.00 0.00 0.00 24 1007.0
20260504201029 81 304 2.0 7.0 0.00 0.00 0.00 23 1007.0
20260504200521 81 253 2.0 9.0 0.00 0.00 0.00 24 1007.0
20260504200039 81 174 3.0 9.0 0.00 0.00 0.00 23 1007.1
20260504195530 80 278 3.0 11.0 0.00 0.00 0.00 23 1007.2
20260504195026 80 248 3.0 11.0 0.00 0.00 0.00 23 1007.4
20260504194544 79 240 2.0 8.0 0.00 0.00 0.00 24 1007.5
20260504194031 78 250 2.0 11.0 0.00 0.00 0.00 25 1007.4
20260504193524 78 226 2.0 11.0 0.00 0.00 0.00 25 1007.7
20260504193036 77 156 1.0 4.0 0.00 0.00 0.00 26 1007.7
20260504192531 77 252 1.0 8.0 0.00 0.00 0.00 26 1007.8
20260504192025 77 287 2.0 8.0 0.00 0.00 0.00 26 1007.8
20260504191535 77 250 0.0 7.0 0.00 0.00 0.00 28 1007.8
20260504191028 77 135 1.0 7.0 0.00 0.00 0.00 30 1008.0
20260504190524 76 266 0.0 2.0 0.00 0.00 0.00 32 1008.0
20260504190037 76 246 0.0 2.0 0.00 0.00 0.00 31 1008.2
20260504185527 75 239 0.0 2.0 0.00 0.00 0.00 31 1008.3
20260504185023 74 232 0.0 4.0 0.00 0.00 0.00 33 1008.4
20260504184533 74 253 0.0 4.0 0.00 0.00 0.00 32 1008.6
20260504184028 73 197 0.0 5.0 0.00 0.00 0.00 34 1008.6
20260504183524 73 204 0.0 7.0 0.00 0.00 0.00 32 1008.6
20260504183032 73 173 0.0 5.0 0.00 0.00 0.00 34 1008.6
20260504182530 73 181 0.0 1.0 0.00 0.00 0.00 36 1008.8
20260504182023 72 243 0.0 3.0 0.00 0.00 0.00 34 1008.8
20260504181533 72 258 0.0 3.0 0.00 0.00 0.00 34 1008.8
20260504181028 72 187 0.0 4.0 0.00 0.00 0.00 35 1008.9
20260504180522 72 270 0.0 5.0 0.00 0.00 0.00 34 1009.2
20260504180031 72 214 0.0 2.0 0.00 0.00 0.00 36 1009.1
20260504175529 72 139 0.0 2.0 0.00 0.00 0.00 36 1009.3
20260504175024 72 225 0.0 6.0 0.00 0.00 0.00 35 1009.4
20260504174532 71 135 1.0 6.0 0.00 0.00 0.00 36 1009.5
20260504174028 71 96 0.0 4.0 0.00 0.00 0.00 40 1009.9
20260504173526 70 360 0.0 2.0 0.00 0.00 0.00 40 1009.7
20260504173034 70 139 0.0 1.0 0.00 0.00 0.00 41 1009.7
20260504172528 70 139 0.0 5.0 0.00 0.00 0.00 42 1009.7
20260504172038 70 112 2.0 5.0 0.00 0.00 0.00 42 1009.7
20260504171539 70 117 0.0 2.0 0.00 0.00 0.00 44 1009.8
20260504171032 70 117 0.0 2.0 0.00 0.00 0.00 41 1009.9
20260504170526 70 110 0.0 2.0 0.00 0.00 0.00 40 1009.9
20260504151027 64 291 0.0 0.0 0.00 0.00 0.00 51 1010.1
20260504150535 63 291 0.0 1.0 0.00 0.00 0.00 50 1010.0
20260504141029 63 97 0.0 1.0 0.00 0.00 0.00 51 1010.3
20260504140521 63 101 0.0 1.0 0.00 0.00 0.00 49 1010.4
20260504130525 60 240 0.0 1.0 0.00 0.00 0.00 51 1010.1
20260504110528 61 106 0.0 1.0 0.00 0.00 0.00 52 1007.8
20260504100530 58 352 0.0 0.0 0.00 0.00 0.00 73 1007.9
20260504081533 55 112 0.0 0.0 0.00 0.00 0.00 85 1008.1
20260504081026 56 112 0.0 0.0 0.00 0.00 0.00 85 1008.1
20260504080527 56 111 0.0 0.0 0.00 0.00 0.00 85 1008.2
20260504050536 59 156 0.0 0.0 0.00 0.00 0.00 79 1009.0
20260504045524 59 156 0.0 0.0 0.00 0.00 0.00 78 1009.1
20260504045031 59 156 0.0 0.0 0.00 0.00 0.00 77 1009.1
20260504044535 59 156 0.0 0.0 0.00 0.00 0.00 77 1009.1
20260504044025 59 156 0.0 0.0 0.00 0.00 0.00 76 1009.0
20260504043533 59 156 0.0 0.0 0.00 0.00 0.00 77 1008.9
20260504043029 59 156 0.0 0.0 0.00 0.00 0.00 77 1008.9
20260504042523 59 156 0.0 0.0 0.00 0.00 0.00 76 1008.9
20260504042036 59 156 0.0 0.0 0.00 0.00 0.00 76 1008.9
20260504041532 59 156 0.0 0.0 0.00 0.00 0.00 75 1008.9
20260504041026 60 156 0.0 0.0 0.00 0.00 0.00 74 1008.9
20260504040524 60 157 0.0 0.0 0.00 0.00 0.00 74 1008.8
20260504040032 60 156 0.0 0.0 0.00 0.00 0.00 73 1008.9
20260504035527 60 156 0.0 0.0 0.00 0.00 0.00 73 1008.8
20260504035022 60 156 0.0 0.0 0.00 0.00 0.00 72 1008.7
20260504034535 61 156 0.0 0.0 0.00 0.00 0.00 72 1008.7
20260504034027 61 156 0.0 0.0 0.00 0.00 0.00 72 1008.8
20260504033539 61 156 0.0 0.0 0.00 0.00 0.00 71 1008.9
20260504033031 61 155 0.0 0.0 0.00 0.00 0.00 70 1008.9
20260504032524 62 153 0.0 0.0 0.00 0.00 0.00 68 1008.8
20260504032037 62 153 0.0 0.0 0.00 0.00 0.00 66 1008.7
20260504031532 63 153 0.0 0.0 0.00 0.00 0.00 65 1008.8
20260504031027 63 154 0.0 0.0 0.00 0.00 0.00 64 1008.7
20260504030536 63 153 0.0 0.0 0.00 0.00 0.00 63 1008.7
20260504030039 64 154 0.0 0.0 0.00 0.00 0.00 64 1008.7
20260504025526 64 153 0.0 0.0 0.00 0.00 0.00 62 1008.7
20260504025022 64 153 0.0 0.0 0.00 0.00 0.00 61 1008.7
20260504024532 64 153 0.0 0.0 0.00 0.00 0.00 61 1008.7
20260504024031 65 154 0.0 0.0 0.00 0.00 0.00 59 1008.7
20260504023523 65 153 0.0 0.0 0.00 0.00 0.00 59 1008.7
20260504023035 66 154 0.0 1.0 0.00 0.00 0.00 58 1008.7
20260504022530 66 153 0.0 1.0 0.00 0.00 0.00 58 1008.7
20260504022027 66 143 0.0 0.0 0.00 0.00 0.00 57 1008.6
20260504021536 67 143 0.0 0.0 0.00 0.00 0.00 55 1008.5
20260504021031 67 143 0.0 0.0 0.00 0.00 0.00 53 1008.5
20260504020539 68 226 0.0 0.0 0.00 0.00 0.00 53 1008.4
20260504020035 68 226 0.0 0.0 0.00 0.00 0.00 51 1008.5
20260504015528 69 226 0.0 0.0 0.00 0.00 0.00 51 1008.6
20260504015027 69 226 0.0 0.0 0.00 0.00 0.00 50 1008.4
20260504014539 70 226 0.0 0.0 0.00 0.00 0.00 50 1008.4
20260504014030 70 226 0.0 0.0 0.00 0.00 0.00 49 1008.4
20260504013525 71 226 0.0 0.0 0.00 0.00 0.00 48 1008.3
20260504013035 71 227 0.0 0.0 0.00 0.00 0.00 47 1008.4
20260504012528 71 226 0.0 0.0 0.00 0.00 0.00 47 1008.4
20260504012024 72 226 0.0 0.0 0.00 0.00 0.00 44 1008.4
20260504011534 72 225 0.0 0.0 0.00 0.00 0.00 44 1008.4
20260504011028 73 225 0.0 0.0 0.00 0.00 0.00 44 1008.4
20260504010525 74 225 0.0 0.0 0.00 0.00 0.00 44 1008.4
20260504010036 74 225 0.0 0.0 0.00 0.00 0.00 43 1008.5
20260504005528 75 225 0.0 0.0 0.00 0.00 0.00 42 1008.5
20260504005023 75 224 0.0 1.0 0.00 0.00 0.00 40 1008.6
20260504004535 75 155 0.0 1.0 0.00 0.00 0.00 41 1008.7
20260504004029 75 173 0.0 0.0 0.00 0.00 0.00 42 1008.7
20260504003524 75 173 0.0 1.0 0.00 0.00 0.00 42 1008.7
20260504003043 76 172 0.0 1.0 0.00 0.00 0.00 39 1008.7